| time (UTC) | temp C | wind direction | speed KPH | gust KPH | rain 1hr cm | rain 24hr cm | rain mn cm | humidity % | barometer mb |
| 20260508102021 | 5 | 315 | 0.0 | 0.0 | 0.00 | 0.00 | 0.00 | 57 | 1013.6 |
| 20260508101518 | 5 | 325 | 0.0 | 0.0 | 0.00 | 0.00 | 0.00 | 58 | 1013.6 |
| 20260508101014 | 5 | 322 | 0.0 | 0.0 | 0.00 | 0.00 | 0.00 | 59 | 1013.6 |
| 20260508100513 | 5 | 358 | 0.0 | 0.0 | 0.00 | 0.00 | 0.00 | 59 | 1013.3 |
| 20260508100009 | 5 | 318 | 0.0 | 0.0 | 0.00 | 0.00 | 0.00 | 59 | 1013.4 |
| 20260508095507 | 5 | 321 | 0.0 | 0.0 | 0.00 | 0.00 | 0.00 | 60 | 1013.5 |
| 20260508095003 | 5 | 303 | 0.0 | 0.0 | 0.00 | 0.00 | 0.00 | 60 | 1013.4 |
| 20260508094500 | 5 | 294 | 0.0 | 0.0 | 0.00 | 0.00 | 0.00 | 61 | 1013.3 |
| 20260508093957 | 5 | 316 | 0.0 | 0.0 | 0.00 | 0.00 | 0.00 | 62 | 1013.0 |
| 20260508093454 | 5 | 27 | 0.0 | 0.0 | 0.00 | 0.00 | 0.00 | 63 | 1013.4 |
| 20260508092952 | 4 | 319 | 0.0 | 0.0 | 0.00 | 0.00 | 0.00 | 64 | 1013.3 |
| 20260508092449 | 3 | 323 | 0.0 | 0.0 | 0.00 | 0.00 | 0.00 | 66 | 1013.1 |
| 20260508091948 | 4 | 312 | 0.0 | 0.0 | 0.00 | 0.00 | 0.00 | 66 | 1013.3 |
| 20260508091444 | 3 | 315 | 0.0 | 0.0 | 0.00 | 0.00 | 0.00 | 66 | 1013.1 |
| 20260508090941 | 4 | 4 | 0.0 | 0.0 | 0.00 | 0.00 | 0.00 | 66 | 1013.1 |
| 20260508090440 | 3 | 345 | 0.0 | 0.0 | 0.00 | 0.00 | 0.00 | 67 | 1013.0 |
| 20260508085935 | 3 | 341 | 0.0 | 0.0 | 0.00 | 0.00 | 0.00 | 67 | 1012.9 |
| 20260508085427 | 4 | 331 | 0.0 | 0.0 | 0.00 | 0.00 | 0.00 | 66 | 1012.8 |
| 20260508084923 | 4 | 353 | 0.0 | 0.0 | 0.00 | 0.00 | 0.00 | 66 | 1012.9 |
| 20260508084420 | 4 | 310 | 0.0 | 0.0 | 0.00 | 0.00 | 0.00 | 66 | 1012.7 |
| 20260508083918 | 3 | 4 | 0.0 | 0.0 | 0.00 | 0.00 | 0.00 | 67 | 1012.7 |
| 20260508083415 | 3 | 304 | 0.0 | 0.0 | 0.00 | 0.00 | 0.00 | 69 | 1012.7 |
| 20260508082914 | 3 | 348 | 0.0 | 0.0 | 0.00 | 0.00 | 0.00 | 71 | 1012.7 |
| 20260508082412 | 3 | 352 | 0.0 | 0.0 | 0.00 | 0.00 | 0.00 | 72 | 1013.1 |
| 20260508081910 | 3 | 4 | 0.0 | 0.0 | 0.00 | 0.00 | 0.00 | 70 | 1013.0 |
| 20260508081407 | 3 | 354 | 0.0 | 0.0 | 0.00 | 0.00 | 0.00 | 70 | 1012.9 |
| 20260508080903 | 3 | 320 | 0.0 | 0.0 | 0.00 | 0.00 | 0.00 | 69 | 1012.8 |
| 20260508080402 | 3 | 322 | 0.0 | 0.0 | 0.00 | 0.00 | 0.00 | 69 | 1013.0 |
| 20260508075857 | 3 | 323 | 0.0 | 0.0 | 0.00 | 0.00 | 0.00 | 69 | 1013.1 |
| 20260508075355 | 3 | 335 | 0.0 | 0.0 | 0.00 | 0.00 | 0.00 | 69 | 1012.9 |
| 20260508074852 | 3 | 313 | 0.0 | 0.0 | 0.00 | 0.00 | 0.00 | 70 | 1012.8 |
| 20260508074349 | 3 | 29 | 0.0 | 0.0 | 0.00 | 0.00 | 0.00 | 71 | 1012.9 |
| 20260508073846 | 3 | 351 | 0.0 | 0.0 | 0.00 | 0.00 | 0.00 | 70 | 1012.7 |
| 20260508073344 | 3 | 333 | 0.0 | 0.0 | 0.00 | 0.00 | 0.00 | 70 | 1012.9 |
| 20260508072840 | 3 | 330 | 0.0 | 0.0 | 0.00 | 0.00 | 0.00 | 70 | 1012.6 |
| 20260508072337 | 3 | 322 | 0.0 | 0.0 | 0.00 | 0.00 | 0.00 | 70 | 1012.7 |
| 20260508071834 | 3 | 20 | 0.0 | 0.0 | 0.00 | 0.00 | 0.00 | 70 | 1012.9 |
| 20260508071333 | 3 | 344 | 0.0 | 0.0 | 0.00 | 0.00 | 0.00 | 70 | 1012.8 |
| 20260508070830 | 3 | 326 | 0.0 | 0.0 | 0.00 | 0.00 | 0.00 | 70 | 1012.7 |
| 20260508070328 | 3 | 313 | 0.0 | 0.0 | 0.00 | 0.00 | 0.00 | 71 | 1012.7 |
| 20260508065825 | 3 | 338 | 0.0 | 0.0 | 0.00 | 0.00 | 0.00 | 71 | 1012.9 |
| 20260508065323 | 3 | 17 | 0.0 | 0.0 | 0.00 | 0.00 | 0.00 | 71 | 1012.8 |
| 20260508064821 | 3 | 298 | 0.0 | 0.0 | 0.00 | 0.00 | 0.00 | 72 | 1012.7 |
| 20260508064318 | 3 | 331 | 0.0 | 0.0 | 0.00 | 0.00 | 0.00 | 71 | 1012.7 |
| 20260508063816 | 3 | 5 | 0.0 | 0.0 | 0.00 | 0.00 | 0.00 | 71 | 1012.8 |
| 20260508063314 | 3 | 313 | 0.0 | 0.0 | 0.00 | 0.00 | 0.00 | 71 | 1013.1 |
| 20260508062810 | 3 | 328 | 0.0 | 0.0 | 0.00 | 0.00 | 0.00 | 71 | 1012.9 |
| 20260508062308 | 3 | 35 | 0.0 | 0.0 | 0.00 | 0.00 | 0.00 | 71 | 1013.0 |
| 20260508061805 | 4 | 308 | 0.0 | 0.0 | 0.00 | 0.00 | 0.00 | 71 | 1013.0 |
| 20260508061302 | 4 | 8 | 0.0 | 0.0 | 0.00 | 0.00 | 0.00 | 72 | 1013.1 |
| 20260508060759 | 4 | 339 | 0.0 | 0.0 | 0.00 | 0.00 | 0.00 | 71 | 1012.9 |
| 20260508060257 | 4 | 0 | 0.0 | 0.0 | 0.00 | 0.00 | 0.00 | 71 | 1013.1 |
| 20260508055751 | 4 | 299 | 0.0 | 0.0 | 0.00 | 0.00 | 0.00 | 71 | 1013.3 |
| 20260508055249 | 4 | 325 | 0.0 | 0.0 | 0.00 | 0.00 | 0.00 | 72 | 1013.1 |
| 20260508054745 | 3 | 333 | 0.0 | 0.0 | 0.00 | 0.00 | 0.00 | 74 | 1012.9 |
| 20260508054243 | 3 | 5 | 0.0 | 0.0 | 0.00 | 0.00 | 0.00 | 75 | 1013.0 |
| 20260508053740 | 3 | 295 | 0.0 | 0.0 | 0.00 | 0.00 | 0.00 | 76 | 1013.0 |
| 20260508053237 | 3 | 322 | 0.0 | 0.0 | 0.00 | 0.00 | 0.00 | 78 | 1013.0 |
| 20260508052734 | 3 | 14 | 0.0 | 0.0 | 0.00 | 0.00 | 0.00 | 79 | 1012.9 |
| 20260508052232 | 3 | 39 | 0.0 | 0.0 | 0.00 | 0.00 | 0.00 | 80 | 1013.1 |
| 20260508051728 | 3 | 38 | 0.0 | 0.0 | 0.00 | 0.00 | 0.00 | 80 | 1012.8 |
| 20260508051223 | 3 | 344 | 0.0 | 0.0 | 0.00 | 0.00 | 0.00 | 80 | 1012.8 |
| 20260508050720 | 3 | 328 | 0.0 | 0.0 | 0.00 | 0.00 | 0.00 | 81 | 1012.6 |
| 20260508050217 | 3 | 319 | 0.0 | 0.0 | 0.00 | 0.00 | 0.00 | 81 | 1012.7 |
| 20260508045712 | 3 | 15 | 0.0 | 0.0 | 0.00 | 0.00 | 0.00 | 81 | 1012.8 |
| 20260508045211 | 3 | 32 | 0.0 | 0.0 | 0.00 | 0.00 | 0.00 | 81 | 1012.5 |
| 20260508044708 | 3 | 349 | 0.0 | 0.0 | 0.00 | 0.00 | 0.00 | 80 | 1012.6 |
| 20260508044204 | 3 | 355 | 0.0 | 0.0 | 0.00 | 0.00 | 0.00 | 80 | 1012.9 |
| 20260508043700 | 4 | 307 | 0.0 | 0.0 | 0.00 | 0.00 | 0.00 | 79 | 1012.8 |
| 20260508043158 | 4 | 332 | 0.0 | 0.0 | 0.00 | 0.00 | 0.00 | 78 | 1012.7 |
| 20260508042654 | 4 | 345 | 0.0 | 0.0 | 0.00 | 0.00 | 0.00 | 77 | 1012.6 |
| 20260508042152 | 4 | 326 | 0.0 | 0.0 | 0.00 | 0.00 | 0.00 | 76 | 1012.9 |
| 20260508041648 | 4 | 348 | 0.0 | 0.0 | 0.00 | 0.00 | 0.00 | 76 | 1012.5 |
| 20260508041145 | 5 | 336 | 0.0 | 0.0 | 0.00 | 0.00 | 0.00 | 77 | 1012.5 |
| 20260508040641 | 5 | 328 | 0.0 | 0.0 | 0.00 | 0.00 | 0.00 | 79 | 1012.5 |
| 20260508040139 | 5 | 44 | 0.0 | 0.0 | 0.00 | 0.00 | 0.00 | 79 | 1012.6 |
| 20260508035636 | 5 | 333 | 0.0 | 0.0 | 0.00 | 0.08 | 0.08 | 78 | 1012.6 |
| 20260508035133 | 5 | 15 | 0.0 | 0.0 | 0.00 | 0.08 | 0.08 | 77 | 1012.5 |
| 20260508034630 | 5 | 48 | 0.0 | 0.0 | 0.00 | 0.08 | 0.08 | 76 | 1012.4 |
| 20260508034127 | 5 | 323 | 0.0 | 0.0 | 0.00 | 0.08 | 0.08 | 75 | 1012.5 |
| 20260508033625 | 5 | 24 | 0.0 | 0.0 | 0.00 | 0.08 | 0.08 | 74 | 1012.5 |
| 20260508033123 | 5 | 35 | 0.0 | 0.0 | 0.00 | 0.08 | 0.08 | 74 | 1012.4 |
| 20260508032619 | 6 | 310 | 0.0 | 0.0 | 0.00 | 0.08 | 0.08 | 73 | 1012.2 |
| 20260508032116 | 6 | 11 | 0.0 | 0.0 | 0.00 | 0.08 | 0.08 | 73 | 1012.5 |
| 20260508031614 | 6 | 328 | 0.0 | 0.0 | 0.00 | 0.08 | 0.08 | 73 | 1012.4 |
| 20260508031109 | 6 | 352 | 0.0 | 0.0 | 0.00 | 0.08 | 0.08 | 72 | 1012.2 |
| 20260508030606 | 6 | 339 | 0.0 | 0.0 | 0.00 | 0.08 | 0.08 | 72 | 1012.5 |
| 20260508030104 | 6 | 30 | 0.0 | 0.0 | 0.00 | 0.08 | 0.08 | 71 | 1012.3 |
| 20260508025600 | 6 | 21 | 0.0 | 0.0 | 0.00 | 0.08 | 0.08 | 71 | 1012.2 |
| 20260508025057 | 6 | 344 | 0.0 | 0.0 | 0.00 | 0.08 | 0.08 | 72 | 1012.3 |
| 20260508024553 | 6 | 308 | 0.0 | 0.0 | 0.00 | 0.08 | 0.08 | 72 | 1011.9 |
| 20260508024050 | 6 | 323 | 0.0 | 0.0 | 0.00 | 0.08 | 0.08 | 72 | 1012.2 |
| 20260508023546 | 6 | 332 | 0.0 | 0.0 | 0.00 | 0.08 | 0.08 | 71 | 1012.1 |
| 20260508023044 | 6 | 66 | 0.0 | 0.0 | 0.00 | 0.08 | 0.08 | 70 | 1011.8 |
| 20260508022540 | 7 | 331 | 0.0 | 0.0 | 0.00 | 0.08 | 0.08 | 71 | 1011.8 |
| 20260508022037 | 7 | 332 | 0.0 | 0.0 | 0.00 | 0.08 | 0.08 | 70 | 1011.6 |
| 20260508021533 | 7 | 353 | 0.0 | 0.0 | 0.00 | 0.08 | 0.08 | 70 | 1011.7 |
| 20260508021029 | 7 | 256 | 0.0 | 0.0 | 0.00 | 0.08 | 0.08 | 70 | 1011.7 |
| 20260508020526 | 7 | 344 | 0.0 | 0.0 | 0.00 | 0.08 | 0.08 | 70 | 1011.5 |
| 20260508020024 | 7 | 3 | 0.0 | 0.0 | 0.00 | 0.08 | 0.08 | 69 | 1011.5 |
| 20260508015521 | 7 | 353 | 0.0 | 0.0 | 0.00 | 0.08 | 0.08 | 69 | 1011.4 |
| 20260508015018 | 7 | 89 | 3.2 | 9.7 | 0.00 | 0.08 | 0.08 | 70 | 1011.6 |
| 20260508014515 | 7 | 38 | 0.0 | 0.0 | 0.00 | 0.08 | 0.08 | 69 | 1011.3 |
| 20260508014011 | 7 | 332 | 0.0 | 0.0 | 0.00 | 0.08 | 0.08 | 68 | 1011.5 |
| 20260508013507 | 8 | 2 | 1.6 | 9.7 | 0.00 | 0.08 | 0.08 | 68 | 1011.6 |
| 20260508013005 | 7 | 55 | 0.0 | 0.0 | 0.00 | 0.08 | 0.08 | 68 | 1011.3 |
| 20260508012501 | 8 | 21 | 0.0 | 0.0 | 0.00 | 0.08 | 0.08 | 68 | 1011.1 |
| 20260508011959 | 8 | 279 | 0.0 | 0.0 | 0.00 | 0.08 | 0.08 | 68 | 1011.2 |
| 20260508011457 | 8 | 290 | 0.0 | 0.0 | 0.00 | 0.08 | 0.08 | 67 | 1011.1 |
| 20260508010954 | 8 | 12 | 0.0 | 0.0 | 0.00 | 0.08 | 0.08 | 67 | 1011.1 |
| 20260508010451 | 8 | 90 | 0.0 | 0.0 | 0.00 | 0.08 | 0.08 | 67 | 1010.8 |
| 20260508005948 | 8 | 340 | 0.0 | 0.0 | 0.00 | 0.08 | 0.08 | 67 | 1010.6 |
| 20260508005445 | 8 | 47 | 0.0 | 0.0 | 0.00 | 0.08 | 0.08 | 66 | 1010.7 |
| 20260508004941 | 8 | 337 | 0.0 | 0.0 | 0.00 | 0.08 | 0.08 | 66 | 1010.8 |
| 20260508004437 | 8 | 342 | 1.6 | 4.8 | 0.00 | 0.08 | 0.08 | 65 | 1010.7 |
| 20260508003934 | 8 | 341 | 4.8 | 14.5 | 0.00 | 0.08 | 0.08 | 65 | 1010.7 |
| 20260508003431 | 8 | 332 | 0.0 | 0.0 | 0.00 | 0.08 | 0.08 | 65 | 1010.7 |
| 20260508002928 | 8 | 305 | 0.0 | 0.0 | 0.00 | 0.08 | 0.08 | 65 | 1010.7 |
| 20260508002425 | 9 | 323 | 0.0 | 0.0 | 0.00 | 0.08 | 0.08 | 65 | 1010.7 |
| 20260508001921 | 9 | 329 | 0.0 | 0.0 | 0.00 | 0.08 | 0.08 | 66 | 1010.5 |
| 20260508001417 | 9 | 36 | 0.0 | 0.0 | 0.00 | 0.08 | 0.08 | 65 | 1010.5 |
| 20260508000914 | 10 | 42 | 0.0 | 1.6 | 0.00 | 0.08 | 0.08 | 64 | 1010.5 |
| 20260508000412 | 10 | 350 | 0.0 | 0.0 | 0.00 | 0.08 | 0.08 | 64 | 1010.3 |
| 20260507235907 | 10 | 261 | 0.0 | 0.0 | 0.00 | 0.08 | 0.08 | 63 | 1010.3 |
| 20260507235404 | 10 | 336 | 3.2 | 12.9 | 0.00 | 0.08 | 0.08 | 62 | 1010.5 |
| 20260507234901 | 10 | 336 | 11.3 | 14.5 | 0.00 | 0.08 | 0.08 | 61 | 1010.3 |
| 20260507234359 | 10 | 323 | 1.6 | 4.8 | 0.00 | 0.08 | 0.08 | 62 | 1010.3 |
| 20260507233854 | 10 | 346 | 0.0 | 0.0 | 0.00 | 0.08 | 0.08 | 62 | 1010.2 |
| 20260507233351 | 10 | 197 | 0.0 | 4.8 | 0.00 | 0.08 | 0.08 | 63 | 1010.3 |
| 20260507232849 | 10 | 359 | 0.0 | 0.0 | 0.00 | 0.08 | 0.08 | 62 | 1010.2 |
| 20260507232345 | 11 | 42 | 1.6 | 8.0 | 0.00 | 0.08 | 0.08 | 60 | 1010.4 |
| 20260507231843 | 11 | 286 | 0.0 | 0.0 | 0.00 | 0.08 | 0.08 | 57 | 1010.2 |
| 20260507231339 | 11 | 267 | 8.0 | 16.1 | 0.00 | 0.08 | 0.08 | 58 | 1010.0 |
| 20260507230836 | 11 | 288 | 1.6 | 4.8 | 0.00 | 0.08 | 0.08 | 59 | 1010.3 |
| 20260507230333 | 11 | 77 | 4.8 | 12.9 | 0.00 | 0.08 | 0.08 | 60 | 1010.2 |
| 20260507225833 | 11 | 310 | 11.3 | 20.9 | 0.00 | 0.08 | 0.08 | 60 | 1009.9 |
| 20260507225329 | 11 | 15 | 0.0 | 0.0 | 0.00 | 0.08 | 0.08 | 60 | 1010.2 |
| 20260507224826 | 11 | 266 | 0.0 | 3.2 | 0.00 | 0.08 | 0.08 | 61 | 1010.2 |
| 20260507224322 | 11 | 39 | 3.2 | 14.5 | 0.00 | 0.08 | 0.08 | 60 | 1009.9 |
| 20260507223818 | 11 | 20 | 4.8 | 11.3 | 0.00 | 0.08 | 0.08 | 59 | 1010.1 |
| 20260507223315 | 11 | 19 | 8.0 | 17.7 | 0.00 | 0.08 | 0.08 | 58 | 1009.8 |
| 20260507222812 | 11 | 328 | 0.0 | 0.0 | 0.00 | 0.08 | 0.08 | 57 | 1009.9 |
| 20260507222308 | 11 | 146 | 1.6 | 3.2 | 0.00 | 0.08 | 0.08 | 58 | 1009.8 |
| 20260507221806 | 11 | 195 | 0.0 | 0.0 | 0.00 | 0.08 | 0.08 | 58 | 1009.8 |
| 20260507221302 | 11 | 319 | 6.4 | 11.3 | 0.00 | 0.08 | 0.08 | 57 | 1009.6 |
| 20260507220758 | 11 | 24 | 0.0 | 0.0 | 0.00 | 0.08 | 0.08 | 59 | 1009.8 |
| 20260507220257 | 11 | 309 | 4.8 | 17.7 | 0.00 | 0.08 | 0.08 | 59 | 1009.4 |
| 20260507215752 | 11 | 340 | 0.0 | 3.2 | 0.00 | 0.08 | 0.08 | 60 | 1009.3 |
| 20260507215250 | 11 | 310 | 1.6 | 16.1 | 0.00 | 0.08 | 0.08 | 60 | 1009.4 |
| 20260507214747 | 11 | 300 | 0.0 | 0.0 | 0.00 | 0.08 | 0.08 | 60 | 1009.5 |
| 20260507214244 | 11 | 296 | 17.7 | 22.5 | 0.00 | 0.08 | 0.08 | 59 | 1009.4 |
| 20260507213739 | 11 | 279 | 16.1 | 22.5 | 0.00 | 0.08 | 0.08 | 60 | 1009.4 |
| 20260507213236 | 11 | 346 | 4.8 | 9.7 | 0.00 | 0.08 | 0.08 | 62 | 1009.5 |
| 20260507212733 | 11 | 352 | 0.0 | 3.2 | 0.00 | 0.08 | 0.08 | 62 | 1009.3 |
| 20260507212229 | 11 | 147 | 0.0 | 0.0 | 0.00 | 0.08 | 0.08 | 61 | 1009.1 |
| 20260507211726 | 11 | 330 | 3.2 | 9.7 | 0.00 | 0.08 | 0.08 | 62 | 1009.0 |
| 20260507211222 | 11 | 295 | 0.0 | 1.6 | 0.00 | 0.08 | 0.08 | 62 | 1009.0 |
| 20260507210719 | 11 | 15 | 0.0 | 0.0 | 0.00 | 0.08 | 0.08 | 62 | 1009.0 |
| 20260507210216 | 12 | 267 | 4.8 | 11.3 | 0.00 | 0.08 | 0.08 | 61 | 1009.0 |
| 20260507205713 | 11 | 315 | 6.4 | 14.5 | 0.00 | 0.08 | 0.08 | 62 | 1009.0 |
| 20260507205209 | 11 | 230 | 4.8 | 12.9 | 0.00 | 0.08 | 0.08 | 63 | 1009.0 |
| 20260507204706 | 11 | 327 | 6.4 | 16.1 | 0.00 | 0.08 | 0.08 | 62 | 1009.1 |
| 20260507204204 | 11 | 315 | 8.0 | 16.1 | 0.00 | 0.08 | 0.08 | 62 | 1009.0 |
| 20260507203702 | 11 | 303 | 1.6 | 9.7 | 0.00 | 0.08 | 0.08 | 63 | 1009.0 |
| 20260507203158 | 11 | 309 | 3.2 | 11.3 | 0.00 | 0.08 | 0.08 | 64 | 1009.2 |
| 20260507202654 | 11 | 325 | 1.6 | 12.9 | 0.00 | 0.08 | 0.08 | 64 | 1008.9 |
| 20260507202150 | 12 | 305 | 4.8 | 11.3 | 0.00 | 0.08 | 0.08 | 62 | 1009.0 |
| 20260507201645 | 12 | 329 | 0.0 | 1.6 | 0.00 | 0.08 | 0.08 | 61 | 1008.9 |
| 20260507201143 | 12 | 10 | 8.0 | 16.1 | 0.00 | 0.08 | 0.08 | 60 | 1009.0 |
| 20260507200639 | 11 | 171 | 3.2 | 9.7 | 0.00 | 0.08 | 0.08 | 63 | 1009.3 |
| 20260507200135 | 12 | 18 | 14.5 | 22.5 | 0.00 | 0.08 | 0.08 | 60 | 1009.3 |
| 20260507195632 | 12 | 347 | 4.8 | 12.9 | 0.00 | 0.08 | 0.08 | 64 | 1009.4 |
| 20260507195129 | 11 | 273 | 6.4 | 12.9 | 0.00 | 0.08 | 0.08 | 64 | 1009.6 |
| 20260507194626 | 11 | 354 | 12.9 | 20.9 | 0.00 | 0.08 | 0.08 | 64 | 1009.4 |
| 20260507194121 | 11 | 304 | 0.0 | 4.8 | 0.00 | 0.08 | 0.08 | 64 | 1009.2 |
| 20260507193618 | 11 | 261 | 8.0 | 12.9 | 0.00 | 0.08 | 0.08 | 65 | 1009.4 |
| 20260507193115 | 11 | 356 | 8.0 | 16.1 | 0.00 | 0.08 | 0.08 | 67 | 1009.5 |
| 20260507192612 | 11 | 12 | 1.6 | 8.0 | 0.00 | 0.08 | 0.08 | 69 | 1009.4 |
| 20260507192109 | 10 | 307 | 11.3 | 17.7 | 0.00 | 0.08 | 0.08 | 71 | 1009.3 |
| 20260507191604 | 10 | 51 | 3.2 | 9.7 | 0.00 | 0.08 | 0.08 | 70 | 1009.5 |
| 20260507191101 | 11 | 103 | 4.8 | 12.9 | 0.00 | 0.08 | 0.08 | 69 | 1009.8 |
| 20260507190558 | 11 | 327 | 4.8 | 11.3 | 0.00 | 0.08 | 0.08 | 68 | 1009.6 |
| 20260507190057 | 10 | 316 | 1.6 | 9.7 | 0.00 | 0.08 | 0.08 | 69 | 1009.8 |
| 20260507185555 | 10 | 343 | 8.0 | 17.7 | 0.00 | 0.08 | 0.08 | 69 | 1009.8 |
| 20260507185051 | 10 | 358 | 16.1 | 22.5 | 0.00 | 0.08 | 0.08 | 69 | 1009.4 |
| 20260507184550 | 11 | 318 | 16.1 | 25.7 | 0.00 | 0.08 | 0.08 | 66 | 1010.0 |
| 20260507184047 | 11 | 320 | 1.6 | 8.0 | 0.00 | 0.08 | 0.08 | 65 | 1009.9 |
| 20260507183543 | 11 | 332 | 0.0 | 0.0 | 0.00 | 0.08 | 0.08 | 66 | 1009.6 |
| 20260507183040 | 11 | 10 | 8.0 | 9.7 | 0.00 | 0.08 | 0.08 | 64 | 1009.6 |
| 20260507182536 | 11 | 41 | 0.0 | 0.0 | 0.00 | 0.08 | 0.08 | 66 | 1009.8 |
| 20260507182032 | 11 | 307 | 8.0 | 22.5 | 0.00 | 0.08 | 0.08 | 65 | 1009.6 |
| 20260507181530 | 12 | 318 | 11.3 | 20.9 | 0.00 | 0.08 | 0.08 | 62 | 1009.6 |
| 20260507181026 | 12 | 321 | 0.0 | 1.6 | 0.00 | 0.08 | 0.08 | 63 | 1009.6 |
| 20260507180522 | 12 | 343 | 1.6 | 4.8 | 0.00 | 0.08 | 0.08 | 62 | 1009.6 |
| 20260507180019 | 11 | 347 | 1.6 | 4.8 | 0.00 | 0.08 | 0.08 | 64 | 1009.4 |
| 20260507175515 | 11 | 52 | 0.0 | 0.0 | 0.00 | 0.08 | 0.08 | 63 | 1009.6 |
| 20260507175013 | 11 | 262 | 1.6 | 4.8 | 0.00 | 0.08 | 0.08 | 64 | 1009.8 |
| 20260507174510 | 10 | 315 | 0.0 | 0.0 | 0.00 | 0.08 | 0.08 | 66 | 1009.9 |
| 20260507174008 | 10 | 38 | 6.4 | 16.1 | 0.00 | 0.08 | 0.08 | 64 | 1010.1 |
| 20260507173504 | 10 | 15 | 9.7 | 17.7 | 0.00 | 0.08 | 0.08 | 65 | 1010.1 |
| 20260507173002 | 10 | 302 | 0.0 | 1.6 | 0.00 | 0.08 | 0.08 | 65 | 1009.9 |
| 20260507172457 | 10 | 287 | 0.0 | 0.0 | 0.00 | 0.08 | 0.08 | 66 | 1009.5 |
| 20260507171954 | 10 | 346 | 3.2 | 11.3 | 0.00 | 0.08 | 0.08 | 66 | 1009.9 |
| 20260507171450 | 10 | 330 | 6.4 | 14.5 | 0.00 | 0.08 | 0.08 | 66 | 1009.8 |
| 20260507170947 | 10 | 6 | 3.2 | 9.7 | 0.00 | 0.08 | 0.08 | 66 | 1010.0 |
| 20260507170444 | 10 | 135 | 0.0 | 0.0 | 0.00 | 0.08 | 0.08 | 67 | 1010.0 |
| 20260507165940 | 10 | 11 | 8.0 | 14.5 | 0.00 | 0.08 | 0.08 | 66 | 1009.9 |
| 20260507165436 | 10 | 9 | 4.8 | 12.9 | 0.00 | 0.08 | 0.08 | 67 | 1010.1 |
| 20260507164932 | 10 | 318 | 0.0 | 0.0 | 0.00 | 0.08 | 0.08 | 68 | 1010.1 |
| 20260507164430 | 10 | 311 | 8.0 | 14.5 | 0.00 | 0.08 | 0.08 | 67 | 1010.1 |
| 20260507163926 | 10 | 204 | 0.0 | 3.2 | 0.00 | 0.08 | 0.08 | 66 | 1010.2 |
| 20260507163424 | 10 | 334 | 0.0 | 0.0 | 0.00 | 0.08 | 0.08 | 70 | 1010.2 |
| 20260507162921 | 10 | 5 | 11.3 | 17.7 | 0.00 | 0.08 | 0.08 | 69 | 1010.2 |
| 20260507162416 | 9 | 35 | 0.0 | 0.0 | 0.00 | 0.08 | 0.08 | 70 | 1009.9 |
| 20260507161914 | 10 | 354 | 0.0 | 0.0 | 0.00 | 0.08 | 0.08 | 70 | 1010.1 |
| 20260507161409 | 9 | 32 | 8.0 | 11.3 | 0.00 | 0.08 | 0.08 | 71 | 1010.1 |
| 20260507160906 | 8 | 9 | 0.0 | 0.0 | 0.00 | 0.08 | 0.08 | 74 | 1010.2 |
| 20260507160402 | 9 | 25 | 17.7 | 22.5 | 0.00 | 0.08 | 0.08 | 72 | 1010.3 |
| 20260507155858 | 8 | 347 | 16.1 | 17.7 | 0.00 | 0.08 | 0.08 | 73 | 1010.2 |
| 20260507155354 | 8 | 269 | 1.6 | 3.2 | 0.00 | 0.08 | 0.08 | 73 | 1010.4 |
| 20260507154851 | 8 | 257 | 1.6 | 3.2 | 0.00 | 0.08 | 0.08 | 74 | 1010.4 |
| 20260507154348 | 8 | 344 | 3.2 | 16.1 | 0.00 | 0.08 | 0.08 | 74 | 1010.4 |
| 20260507153846 | 8 | 332 | 6.4 | 11.3 | 0.00 | 0.08 | 0.08 | 73 | 1010.1 |
| 20260507153342 | 8 | 338 | 0.0 | 4.8 | 0.00 | 0.08 | 0.08 | 72 | 1010.2 |
| 20260507152838 | 8 | 338 | 0.0 | 0.0 | 0.00 | 0.08 | 0.08 | 73 | 1010.4 |
| 20260507152334 | 8 | 307 | 0.0 | 3.2 | 0.00 | 0.08 | 0.08 | 74 | 1010.1 |
| 20260507151831 | 8 | 310 | 8.0 | 12.9 | 0.00 | 0.08 | 0.08 | 75 | 1010.4 |
| 20260507151327 | 7 | 39 | 0.0 | 0.0 | 0.00 | 0.08 | 0.08 | 76 | 1010.4 |
| 20260507150824 | 7 | 344 | 8.0 | 14.5 | 0.00 | 0.08 | 0.08 | 75 | 1010.5 |
| 20260507150321 | 8 | 339 | 9.7 | 20.9 | 0.00 | 0.08 | 0.08 | 75 | 1010.3 |
| 20260507145817 | 8 | 1 | 3.2 | 9.7 | 0.00 | 0.08 | 0.08 | 77 | 1010.5 |
| 20260507145314 | 8 | 342 | 8.0 | 14.5 | 0.00 | 0.08 | 0.08 | 77 | 1010.4 |
| 20260507144811 | 8 | 263 | 3.2 | 9.7 | 0.00 | 0.08 | 0.08 | 78 | 1010.7 |
| 20260507144308 | 7 | 328 | 0.0 | 0.0 | 0.00 | 0.08 | 0.08 | 77 | 1010.3 |
| 20260507143804 | 8 | 13 | 17.7 | 22.5 | 0.00 | 0.08 | 0.08 | 79 | 1010.5 |
| 20260507143302 | 7 | 32 | 1.6 | 9.7 | 0.00 | 0.08 | 0.08 | 81 | 1010.4 |
| 20260507142757 | 7 | 350 | 6.4 | 12.9 | 0.00 | 0.08 | 0.08 | 83 | 1010.4 |
| 20260507142254 | 7 | 313 | 6.4 | 12.9 | 0.00 | 0.08 | 0.08 | 85 | 1010.4 |
| 20260507141751 | 7 | 353 | 3.2 | 8.0 | 0.00 | 0.08 | 0.08 | 87 | 1010.6 |
| 20260507141248 | 7 | 346 | 6.4 | 11.3 | 0.00 | 0.08 | 0.08 | 88 | 1010.5 |
| 20260507140744 | 6 | 346 | 0.0 | 0.0 | 0.00 | 0.08 | 0.08 | 90 | 1010.5 |
| 20260507140242 | 6 | 332 | 4.8 | 9.7 | 0.00 | 0.08 | 0.08 | 90 | 1010.7 |
| 20260507135738 | 6 | 346 | 6.4 | 9.7 | 0.00 | 0.08 | 0.08 | 91 | 1010.6 |
| 20260507135236 | 6 | 358 | 6.4 | 12.9 | 0.00 | 0.08 | 0.08 | 90 | 1010.5 |
| 20260507134732 | 6 | 49 | 3.2 | 11.3 | 0.00 | 0.08 | 0.08 | 91 | 1010.5 |
| 20260507134228 | 6 | 326 | 8.0 | 16.1 | 0.00 | 0.08 | 0.08 | 93 | 1010.6 |
| 20260507133724 | 6 | 332 | 11.3 | 20.9 | 0.00 | 0.08 | 0.08 | 94 | 1010.7 |
| 20260507133221 | 6 | 260 | 6.4 | 14.5 | 0.00 | 0.08 | 0.08 | 95 | 1010.8 |
| 20260507132719 | 6 | 306 | 3.2 | 12.9 | 0.00 | 0.08 | 0.08 | 97 | 1010.6 |
| 20260507132215 | 6 | 346 | 4.8 | 11.3 | 0.00 | 0.08 | 0.08 | 97 | 1010.8 |
| 20260507131712 | 6 | 32 | 3.2 | 11.3 | 0.00 | 0.08 | 0.08 | 98 | 1010.6 |
| 20260507131210 | 6 | 347 | 8.0 | 12.9 | 0.00 | 0.08 | 0.08 | 98 | 1011.1 |
| 20260507130706 | 6 | 0 | 0.0 | 0.0 | 0.00 | 0.08 | 0.08 | 98 | 1011.0 |
| 20260507130204 | 6 | 341 | 3.2 | 3.2 | 0.00 | 0.08 | 0.08 | 99 | 1011.1 |
| 20260507125702 | 6 | 3 | 0.0 | 0.0 | 0.00 | 0.08 | 0.08 | 99 | 1010.7 |
| 20260507125200 | 6 | 329 | 4.8 | 9.7 | 0.00 | 0.08 | 0.08 | 99 | 1011.0 |
| 20260507124656 | 6 | 334 | 4.8 | 11.3 | 0.00 | 0.08 | 0.08 | 99 | 1010.8 |
| 20260507124153 | 6 | 330 | 4.8 | 9.7 | 0.00 | 0.08 | 0.08 | 99 | 1011.3 |
| 20260507123652 | 6 | 306 | 1.6 | 4.8 | 0.00 | 0.08 | 0.08 | 99 | 1011.4 |
| 20260507123148 | 6 | 2 | 4.8 | 9.7 | 0.00 | 0.08 | 0.08 | 99 | 1011.1 |
| 20260507122643 | 6 | 348 | 1.6 | 8.0 | 0.00 | 0.08 | 0.08 | 99 | 1011.5 |
| 20260507122139 | 6 | 341 | 0.0 | 0.0 | 0.00 | 0.08 | 0.08 | 99 | 1011.0 |
| 20260507121635 | 6 | 271 | 0.0 | 0.0 | 0.00 | 0.08 | 0.08 | 99 | 1011.0 |
| 20260507121132 | 6 | 74 | 0.0 | 3.2 | 0.00 | 0.08 | 0.08 | 99 | 1010.7 |
| 20260507120628 | 6 | 6 | 4.8 | 9.7 | 0.00 | 0.08 | 0.08 | 99 | 1010.8 |
| 20260507120125 | 6 | 330 | 0.0 | 3.2 | 0.00 | 0.08 | 0.08 | 99 | 1010.6 |
| 20260507115621 | 6 | 327 | 0.0 | 1.6 | 0.00 | 0.08 | 0.08 | 99 | 1010.7 |
| 20260507115117 | 6 | 9 | 0.0 | 0.0 | 0.00 | 0.08 | 0.08 | 99 | 1010.4 |
| 20260507114613 | 6 | 337 | 3.2 | 9.7 | 0.00 | 0.08 | 0.08 | 99 | 1010.5 |
| 20260507114110 | 6 | 45 | 4.8 | 8.0 | 0.00 | 0.08 | 0.08 | 99 | 1010.8 |
| 20260507113608 | 6 | 8 | 4.8 | 9.7 | 0.00 | 0.08 | 0.08 | 99 | 1010.6 |
| 20260507113104 | 6 | 324 | 1.6 | 8.0 | 0.00 | 0.08 | 0.08 | 99 | 1010.6 |
| 20260507112603 | 6 | 14 | 4.8 | 11.3 | 0.00 | 0.08 | 0.08 | 99 | 1010.6 |
| 20260507112059 | 6 | 339 | 1.6 | 8.0 | 0.00 | 0.08 | 0.08 | 99 | 1010.7 |
| 20260507111556 | 6 | 335 | 0.0 | 0.0 | 0.00 | 0.08 | 0.08 | 99 | 1010.7 |
| 20260507111053 | 6 | 1 | 12.9 | 17.7 | 0.00 | 0.08 | 0.08 | 99 | 1010.3 |
| 20260507110549 | 6 | 323 | 0.0 | 3.2 | 0.00 | 0.08 | 0.08 | 99 | 1010.4 |
| 20260507110046 | 6 | 37 | 0.0 | 0.0 | 0.00 | 0.08 | 0.08 | 99 | 1010.5 |
| 20260507105542 | 6 | 14 | 0.0 | 0.0 | 0.00 | 0.08 | 0.08 | 99 | 1010.1 |
| 20260507105038 | 6 | 325 | 0.0 | 0.0 | 0.00 | 0.08 | 0.08 | 99 | 1010.1 |
| 20260507104536 | 6 | 43 | 0.0 | 0.0 | 0.00 | 0.08 | 0.08 | 99 | 1010.3 |
| 20260507104032 | 6 | 347 | 0.0 | 0.0 | 0.00 | 0.08 | 0.08 | 99 | 1010.4 |
| 20260507103528 | 6 | 339 | 0.0 | 0.0 | 0.00 | 0.08 | 0.08 | 99 | 1010.1 |
| 20260507103025 | 6 | 13 | 0.0 | 3.2 | 0.00 | 0.08 | 0.08 | 99 | 1010.4 |
| 20260507102522 | 6 | 17 | 0.0 | 1.6 | 0.00 | 0.08 | 0.08 | 99 | 1010.2 |